Time,TemperatureF,DewpointF,PressureIn,WindDirection,WindDirectionDegrees,WindSpeedMPH,WindSpeedGustMPH,Humidity,HourlyPrecipIn,Conditions,Clouds,dailyrainin,SoftwareType,DateUTC
2013-04-04 00:00:00,59.0,57.0,29.93,NNE,20,16.0,17.0,93,-99.99,,,-99.99,,2013-04-04 05:00:00,
2013-04-04 00:22:00,59.0,57.0,29.93,NNE,20,16.0,17.0,93,-99.99,,,-99.99,,2013-04-04 05:22:00,
2013-04-04 00:32:00,59.0,57.0,29.93,NNE,20,16.0,17.0,93,-99.99,,,-99.99,,2013-04-04 05:32:00,
2013-04-04 00:42:00,59.0,57.0,29.93,NNE,20,16.0,17.0,93,-99.99,,,-99.99,,2013-04-04 05:42:00,
2013-04-04 00:52:00,59.0,57.0,29.93,NNE,20,16.0,17.0,93,-99.99,,,-99.99,,2013-04-04 05:52:00,
2013-04-04 01:00:00,59.0,57.0,29.92,North,10,15.0,17.0,93,-99.99,,,-99.99,,2013-04-04 06:00:00,
2013-04-04 01:21:00,59.0,57.0,29.92,North,10,15.0,17.0,93,-99.99,,,-99.99,,2013-04-04 06:21:00,
2013-04-04 01:32:00,59.0,57.0,29.92,North,10,15.0,17.0,93,-99.99,,,-99.99,,2013-04-04 06:32:00,
2013-04-04 01:42:00,59.0,57.0,29.92,North,10,15.0,17.0,93,-99.99,,,-99.99,,2013-04-04 06:42:00,
2013-04-04 01:51:00,59.0,57.0,29.92,North,10,15.0,17.0,93,-99.99,,,-99.99,,2013-04-04 06:51:00,
2013-04-04 02:00:00,59.0,57.0,29.90,North,10,14.0,15.0,93,-99.99,,,-99.99,,2013-04-04 07:00:00,
2013-04-04 02:21:00,59.0,57.0,29.90,North,10,14.0,15.0,93,-99.99,,,-99.99,,2013-04-04 07:21:00,
2013-04-04 02:31:00,59.0,57.0,29.90,North,10,14.0,15.0,93,-99.99,,,-99.99,,2013-04-04 07:31:00,
2013-04-04 02:42:00,59.0,57.0,29.90,North,10,14.0,15.0,93,-99.99,,,-99.99,,2013-04-04 07:42:00,
2013-04-04 02:51:00,59.0,57.0,29.90,North,10,14.0,15.0,93,-99.99,,,-99.99,,2013-04-04 07:51:00,
2013-04-04 03:00:00,59.0,57.0,29.89,North,10,13.0,14.0,94,-99.99,,,-99.99,,2013-04-04 08:00:00,
2013-04-04 03:21:00,59.0,57.0,29.89,North,10,13.0,14.0,94,-99.99,,,-99.99,,2013-04-04 08:21:00,
2013-04-04 03:32:00,59.0,57.0,29.89,North,10,13.0,14.0,94,-99.99,,,-99.99,,2013-04-04 08:32:00,
2013-04-04 03:42:00,59.0,57.0,29.89,North,10,13.0,14.0,94,-99.99,,,-99.99,,2013-04-04 08:42:00,
2013-04-04 03:52:00,59.0,57.0,29.89,North,10,13.0,14.0,94,-99.99,,,-99.99,,2013-04-04 08:52:00,
2013-04-04 04:00:00,59.0,58.0,29.88,NNE,30,9.0,10.0,94,-99.99,,,-99.99,,2013-04-04 09:00:00,
2013-04-04 04:21:00,59.0,58.0,29.88,NNE,30,9.0,10.0,94,-99.99,,,-99.99,,2013-04-04 09:21:00,
2013-04-04 04:32:00,59.0,58.0,29.88,NNE,30,9.0,10.0,94,-99.99,,,-99.99,,2013-04-04 09:32:00,
2013-04-04 04:42:00,59.0,58.0,29.88,NNE,30,9.0,10.0,94,-99.99,,,-99.99,,2013-04-04 09:42:00,
2013-04-04 04:52:00,59.0,58.0,29.88,NNE,30,9.0,10.0,94,-99.99,,,-99.99,,2013-04-04 09:52:00,
2013-04-04 05:00:00,60.0,58.0,29.88,NNE,30,6.0,7.0,95,-99.99,,,-99.99,,2013-04-04 10:00:00,
2013-04-04 05:22:00,60.0,58.0,29.88,NNE,30,6.0,7.0,95,-99.99,,,-99.99,,2013-04-04 10:22:00,
2013-04-04 05:32:00,60.0,58.0,29.88,NNE,30,6.0,7.0,95,-99.99,,,-99.99,,2013-04-04 10:32:00,
2013-04-04 05:41:00,60.0,58.0,29.88,NNE,30,6.0,7.0,95,-99.99,,,-99.99,,2013-04-04 10:41:00,
2013-04-04 05:52:00,60.0,58.0,29.88,NNE,30,6.0,7.0,95,-99.99,,,-99.99,,2013-04-04 10:52:00,
2013-04-04 06:00:00,60.0,59.0,29.91,North,10,5.0,6.0,96,-99.99,,,-99.99,,2013-04-04 11:00:00,
2013-04-04 06:21:00,60.0,59.0,29.91,North,10,5.0,6.0,96,-99.99,,,-99.99,,2013-04-04 11:21:00,
2013-04-04 06:31:00,60.0,59.0,29.91,North,10,5.0,6.0,96,-99.99,,,-99.99,,2013-04-04 11:31:00,
2013-04-04 06:42:00,60.0,59.0,29.91,North,10,5.0,6.0,96,-99.99,,,-99.99,,2013-04-04 11:42:00,
2013-04-04 06:52:00,60.0,59.0,29.91,North,10,5.0,6.0,96,-99.99,,,-99.99,,2013-04-04 11:52:00,
2013-04-04 07:00:00,59.0,59.0,29.93,NNW,330,3.0,5.0,98,-99.99,,,-99.99,,2013-04-04 12:00:00,
2013-04-04 07:21:00,59.0,59.0,29.93,NNW,330,3.0,5.0,98,-99.99,,,-99.99,,2013-04-04 12:21:00,
2013-04-04 07:31:00,59.0,59.0,29.93,NNW,330,3.0,5.0,98,-99.99,,,-99.99,,2013-04-04 12:31:00,
2013-04-04 07:42:00,59.0,59.0,29.93,NNW,330,3.0,5.0,98,-99.99,,,-99.99,,2013-04-04 12:42:00,
2013-04-04 07:51:00,59.0,59.0,29.93,NNW,330,3.0,5.0,98,-99.99,,,-99.99,,2013-04-04 12:51:00,
2013-04-04 08:00:00,58.0,58.0,29.93,NW,310,8.0,9.0,98,-99.99,,,-99.99,,2013-04-04 13:00:00,
2013-04-04 08:21:00,58.0,58.0,29.93,NW,310,8.0,9.0,98,-99.99,,,-99.99,,2013-04-04 13:21:00,
2013-04-04 08:31:00,58.0,58.0,29.93,NW,310,8.0,9.0,98,-99.99,,,-99.99,,2013-04-04 13:31:00,
2013-04-04 08:41:00,58.0,58.0,29.93,NW,310,8.0,9.0,98,-99.99,,,-99.99,,2013-04-04 13:41:00,
2013-04-04 08:52:00,58.0,58.0,29.93,NW,310,8.0,9.0,98,-99.99,,,-99.99,,2013-04-04 13:52:00,
2013-04-04 09:00:00,58.0,58.0,29.94,NW,310,9.0,10.0,100,-99.99,,,-99.99,,2013-04-04 14:00:00,
2013-04-04 09:21:00,58.0,58.0,29.94,NW,310,9.0,10.0,100,-99.99,,,-99.99,,2013-04-04 14:21:00,
2013-04-04 09:32:00,58.0,58.0,29.94,NW,310,9.0,10.0,100,-99.99,,,-99.99,,2013-04-04 14:32:00,
2013-04-04 09:42:00,58.0,58.0,29.94,NW,310,9.0,10.0,100,-99.99,,,-99.99,,2013-04-04 14:42:00,
2013-04-04 09:52:00,58.0,58.0,29.94,NW,310,9.0,10.0,100,-99.99,,,-99.99,,2013-04-04 14:52:00,
2013-04-04 10:00:00,59.0,58.0,29.94,NNW,330,6.0,7.0,96,-99.99,,,-99.99,,2013-04-04 15:00:00,
2013-04-04 10:21:00,59.0,58.0,29.94,NNW,330,6.0,7.0,96,-99.99,,,-99.99,,2013-04-04 15:21:00,
2013-04-04 10:32:00,59.0,58.0,29.94,NNW,330,6.0,7.0,96,-99.99,,,-99.99,,2013-04-04 15:32:00,
2013-04-04 10:42:00,59.0,58.0,29.94,NNW,330,6.0,7.0,96,-99.99,,,-99.99,,2013-04-04 15:42:00,
2013-04-04 10:52:00,59.0,58.0,29.94,NNW,330,6.0,7.0,96,-99.99,,,-99.99,,2013-04-04 15:52:00,
2013-04-04 11:00:00,61.0,59.0,29.96,North,360,3.0,3.0,94,-99.99,,,-99.99,,2013-04-04 16:00:00,
2013-04-04 11:22:00,61.0,59.0,29.96,North,360,3.0,3.0,94,-99.99,,,-99.99,,2013-04-04 16:22:00,
2013-04-04 11:32:00,61.0,59.0,29.96,North,360,3.0,3.0,94,-99.99,,,-99.99,,2013-04-04 16:32:00,
2013-04-04 11:42:00,61.0,59.0,29.96,North,360,3.0,3.0,94,-99.99,,,-99.99,,2013-04-04 16:42:00,
2013-04-04 11:52:00,61.0,59.0,29.96,North,360,3.0,3.0,94,-99.99,,,-99.99,,2013-04-04 16:52:00,
2013-04-04 12:00:00,62.0,59.0,29.96,West,280,8.0,11.0,91,-99.99,,,-99.99,,2013-04-04 17:00:00,
2013-04-04 12:22:00,62.0,59.0,29.96,West,280,8.0,11.0,91,-99.99,,,-99.99,,2013-04-04 17:22:00,
2013-04-04 12:32:00,62.0,59.0,29.96,West,280,8.0,11.0,91,-99.99,,,-99.99,,2013-04-04 17:32:00,
2013-04-04 12:42:00,62.0,59.0,29.96,West,280,8.0,11.0,91,-99.99,,,-99.99,,2013-04-04 17:42:00,
2013-04-04 12:51:00,62.0,59.0,29.96,West,280,8.0,11.0,91,-99.99,,,-99.99,,2013-04-04 17:51:00,
2013-04-04 13:00:00,63.0,60.0,29.94,West,260,7.0,10.0,90,-99.99,,,-99.99,,2013-04-04 18:00:00,
2013-04-04 13:22:00,63.0,60.0,29.94,West,260,7.0,10.0,90,-99.99,,,-99.99,,2013-04-04 18:22:00,
2013-04-04 13:31:00,63.0,60.0,29.94,West,260,7.0,10.0,90,-99.99,,,-99.99,,2013-04-04 18:31:00,
2013-04-04 13:42:00,63.0,60.0,29.94,West,260,7.0,10.0,90,-99.99,,,-99.99,,2013-04-04 18:42:00,
2013-04-04 13:52:00,63.0,60.0,29.94,West,260,7.0,10.0,90,-99.99,,,-99.99,,2013-04-04 18:52:00,
2013-04-04 14:00:00,64.0,59.0,29.92,WSW,240,8.0,10.0,85,-99.99,,,-99.99,,2013-04-04 19:00:00,
2013-04-04 14:21:00,64.0,59.0,29.92,WSW,240,8.0,10.0,85,-99.99,,,-99.99,,2013-04-04 19:21:00,
2013-04-04 14:31:00,64.0,59.0,29.92,WSW,240,8.0,10.0,85,-99.99,,,-99.99,,2013-04-04 19:31:00,
2013-04-04 14:41:00,64.0,59.0,29.92,WSW,240,8.0,10.0,85,-99.99,,,-99.99,,2013-04-04 19:41:00,
2013-04-04 14:52:00,64.0,59.0,29.92,WSW,240,8.0,10.0,85,-99.99,,,-99.99,,2013-04-04 19:52:00,
2013-04-04 15:00:00,64.0,58.0,29.89,WSW,240,11.0,16.0,82,-99.99,,,-99.99,,2013-04-04 20:00:00,
2013-04-04 15:21:00,64.0,58.0,29.89,WSW,240,11.0,16.0,82,-99.99,,,-99.99,,2013-04-04 20:21:00,
2013-04-04 15:32:00,64.0,58.0,29.89,WSW,240,11.0,16.0,82,-99.99,,,-99.99,,2013-04-04 20:32:00,
2013-04-04 15:42:00,64.0,58.0,29.89,WSW,240,11.0,16.0,82,-99.99,,,-99.99,,2013-04-04 20:42:00,
2013-04-04 15:52:00,64.0,58.0,29.89,WSW,240,11.0,16.0,82,-99.99,,,-99.99,,2013-04-04 20:52:00,
2013-04-04 16:00:00,63.0,58.0,29.88,West,260,13.0,17.0,82,-99.99,,,-99.99,,2013-04-04 21:00:00,
2013-04-04 16:21:00,63.0,58.0,29.88,West,260,13.0,17.0,82,-99.99,,,-99.99,,2013-04-04 21:21:00,
2013-04-04 16:32:00,63.0,58.0,29.88,West,260,13.0,17.0,82,-99.99,,,-99.99,,2013-04-04 21:32:00,
2013-04-04 16:42:00,63.0,58.0,29.88,West,260,13.0,17.0,82,-99.99,,,-99.99,,2013-04-04 21:42:00,
2013-04-04 16:52:00,63.0,58.0,29.88,West,260,13.0,17.0,82,-99.99,,,-99.99,,2013-04-04 21:52:00,
2013-04-04 17:00:00,63.0,58.0,29.86,West,260,11.0,14.0,82,-99.99,,,-99.99,,2013-04-04 22:00:00,
2013-04-04 17:22:00,63.0,58.0,29.86,West,260,11.0,14.0,82,-99.99,,,-99.99,,2013-04-04 22:22:00,
2013-04-04 17:32:00,63.0,58.0,29.86,West,260,11.0,14.0,82,-99.99,,,-99.99,,2013-04-04 22:32:00,
2013-04-04 17:42:00,63.0,58.0,29.86,West,260,11.0,14.0,82,-99.99,,,-99.99,,2013-04-04 22:42:00,
2013-04-04 17:52:00,63.0,58.0,29.86,West,260,11.0,14.0,82,-99.99,,,-99.99,,2013-04-04 22:52:00,
2013-04-04 18:00:00,64.0,58.0,29.86,WSW,250,9.0,14.0,82,-99.99,,,-99.99,,2013-04-04 23:00:00,
2013-04-04 18:31:00,64.0,58.0,29.86,WSW,250,9.0,14.0,82,-99.99,,,-99.99,,2013-04-04 23:31:00,
2013-04-04 18:42:00,64.0,58.0,29.86,WSW,250,9.0,14.0,82,-99.99,,,-99.99,,2013-04-04 23:42:00,
2013-04-04 18:52:00,64.0,58.0,29.86,WSW,250,9.0,14.0,82,-99.99,,,-99.99,,2013-04-04 23:52:00,
2013-04-04 19:00:00,63.0,58.0,29.86,West,260,8.0,11.0,82,-99.99,,,-99.99,,2013-04-05 00:00:00,
2013-04-04 19:21:00,63.0,58.0,29.86,West,260,8.0,11.0,82,-99.99,,,-99.99,,2013-04-05 00:21:00,
2013-04-04 19:32:00,63.0,58.0,29.86,West,260,8.0,11.0,82,-99.99,,,-99.99,,2013-04-05 00:32:00,
2013-04-04 19:41:00,63.0,58.0,29.86,West,260,8.0,11.0,82,-99.99,,,-99.99,,2013-04-05 00:41:00,
2013-04-04 19:51:00,63.0,58.0,29.86,West,260,8.0,11.0,82,-99.99,,,-99.99,,2013-04-05 00:51:00,
2013-04-04 20:00:00,63.0,57.0,29.88,NW,310,20.0,22.0,80,-99.99,,,-99.99,,2013-04-05 01:00:00,
2013-04-04 20:21:00,63.0,57.0,29.88,NW,310,20.0,22.0,80,-99.99,,,-99.99,,2013-04-05 01:21:00,
2013-04-04 20:31:00,63.0,57.0,29.88,NW,310,20.0,22.0,80,-99.99,,,-99.99,,2013-04-05 01:31:00,
2013-04-04 20:41:00,63.0,57.0,29.88,NW,310,20.0,22.0,80,-99.99,,,-99.99,,2013-04-05 01:41:00,
2013-04-04 20:52:00,63.0,57.0,29.88,NW,310,20.0,22.0,80,-99.99,,,-99.99,,2013-04-05 01:52:00,
2013-04-04 21:00:00,61.0,56.0,29.90,NW,320,22.0,24.0,83,-99.99,,,-99.99,,2013-04-05 02:00:00,
2013-04-04 21:21:00,61.0,56.0,29.90,NW,320,22.0,24.0,83,-99.99,,,-99.99,,2013-04-05 02:21:00,
2013-04-04 21:31:00,61.0,56.0,29.90,NW,320,22.0,24.0,83,-99.99,,,-99.99,,2013-04-05 02:31:00,
2013-04-04 21:41:00,61.0,56.0,29.90,NW,320,22.0,24.0,83,-99.99,,,-99.99,,2013-04-05 02:41:00,
2013-04-04 21:51:00,61.0,56.0,29.90,NW,320,22.0,24.0,83,-99.99,,,-99.99,,2013-04-05 02:51:00,
2013-04-04 22:00:00,59.0,55.0,29.93,NW,310,21.0,24.0,84,-99.99,,,-99.99,,2013-04-05 03:00:00,
2013-04-04 22:22:00,59.0,55.0,29.93,NW,310,21.0,24.0,84,-99.99,,,-99.99,,2013-04-05 03:22:00,
2013-04-04 22:32:00,59.0,55.0,29.93,NW,310,21.0,24.0,84,-99.99,,,-99.99,,2013-04-05 03:32:00,
2013-04-04 22:42:00,59.0,55.0,29.93,NW,310,21.0,24.0,84,-99.99,,,-99.99,,2013-04-05 03:42:00,
2013-04-04 22:53:00,59.0,55.0,29.93,NW,310,21.0,24.0,84,-99.99,,,-99.99,,2013-04-05 03:53:00,
2013-04-04 23:00:00,58.0,54.0,29.94,WNW,300,20.0,22.0,87,-99.99,,,-99.99,,2013-04-05 04:00:00,
2013-04-04 23:22:00,58.0,54.0,29.94,WNW,300,20.0,22.0,87,-99.99,,,-99.99,,2013-04-05 04:22:00,
2013-04-04 23:32:00,58.0,54.0,29.94,WNW,300,20.0,22.0,87,-99.99,,,-99.99,,2013-04-05 04:32:00,
2013-04-04 23:42:00,58.0,54.0,29.94,WNW,300,20.0,22.0,87,-99.99,,,-99.99,,2013-04-05 04:42:00,
2013-04-04 23:52:00,58.0,54.0,29.94,WNW,300,20.0,22.0,87,-99.99,,,-99.99,,2013-04-05 04:52:00,